[[{"header":{"parameterUnit":"m.s-1","parameterCategory":1,"la1":30.2991,"la2":30.254,"lo1":-89.0895,"lo2":-89.0444,"dy":0.0017,"dx":0.0017,"nx":28,"ny":28,"refTime":"2023-04-17T15:00:00:Z","depth":0,"parameterNumber":2,"parameterNumberName":"U-component_of_WINDS"},"data":[0,0,0,0,0,0,0,0,0,0,0,0,0,0,0,0,0,0,0,0,0,0,0,0,0,0,0,0,0,0,0,0,0,0,0,0,0,0,0,0,0,0,0,0,0,0,0,0,0,0,0,0,0,0,0,0,0,0,-3.1635,-3.1635,0,-3.1609,-3.1609,-3.1609,-3.1532,-3.153,-3.1528,-3.1527,-3.1501,-3.1502,-3.1502,0,0,0,0,0,0,0,0,0,0,0,0,0,-3.1621,-3.1622,-3.1635,-3.1635,-3.1635,-3.1609,-3.1609,-3.1609,-3.1532,-3.153,-3.1528,-3.1526,-3.15,-3.1502,-3.1503,0,0,0,0,0,0,0,0,0,0,0,0,0,-3.1615,-3.1622,-3.1635,-3.1593,-3.1589,-3.1609,-3.1609,-3.1608,-3.1533,-3.153,-3.1527,-3.1525,-3.15,-3.1501,-3.1503,-3.1561,0,0,-3.1507,-3.1507,0,0,0,0,0,0,0,0,-3.1615,-3.1615,-3.16,-3.1596,-3.1592,-3.1571,-3.1594,-3.1593,-3.1533,-3.1554,-3.1527,-3.1524,-3.1526,-3.1525,-3.1526,-3.156,-3.1559,-3.1507,-3.1508,-3.1508,-3.1509,0,0,0,0,0,0,0,-3.1616,-3.1616,-3.1625,-3.16,-3.1595,-3.1577,-3.1573,-3.1594,-3.1555,-3.1552,-3.1546,-3.1544,-3.1524,-3.1525,-3.1525,-3.1559,-3.1507,-3.1508,-3.1509,-3.1509,-3.1641,-3.1644,0,0,0,0,0,0,-3.1622,-3.1617,-3.1626,-3.1624,-3.1597,-3.1579,-3.1575,-3.158,-3.1554,-3.1548,-3.1547,-3.1541,-3.1524,-3.1523,-3.1524,-3.159,-3.1508,-3.1509,-3.151,-3.1639,-3.1642,-3.1645,0,0,0,0,0,0,-3.1622,-3.1623,-3.1627,-3.1619,-3.1618,-3.1582,-3.1589,-3.1581,-3.1582,-3.155,-3.1543,-3.1555,-3.1522,-3.1522,-3.1553,-3.1588,-3.151,-3.1511,-3.1635,-3.164,-3.1643,-3.1725,0,0,0,0,0,0,-3.1622,-3.1624,-3.1645,-3.162,-3.1619,-3.1656,-3.1591,-3.1582,-3.1585,-3.1577,-3.1556,-3.155,-3.152,-3.1551,-3.1554,-3.1589,-3.1512,-3.1632,-3.1637,-3.1642,-3.1719,-3.1731,-3.1742,0,0,0,0,0,-3.1622,-3.1669,-3.1646,-3.1648,-3.1644,-3.1658,-3.1657,-3.1621,-3.1588,-3.1609,-3.1589,-3.1551,-3.1585,-3.1555,-3.1558,-3.1593,-3.1629,-3.1636,-3.1642,-3.1714,-3.1729,-3.1742,0,0,0,0,0,0,-3.1698,-3.1664,-3.1639,-3.1679,-3.1672,-3.1645,-3.167,-3.1638,-3.164,-3.1633,-3.1589,-3.1585,-3.1623,-3.1611,-3.1579,-3.165,-3.1601,-3.1608,-3.1655,-3.1669,-3.1681,-3.1681,-3.1513,0,0,0,0,0,-3.1719,-3.1733,-3.1703,-3.1742,-3.174,-3.1706,-3.1711,-3.1684,-3.1675,-3.1671,-3.1653,-3.1646,-3.1655,-3.1662,-3.1669,-3.1718,-3.1713,-3.1744,-3.1756,-3.1766,-3.1771,-3.1798,-3.1811,-3.1665,-3.1665,-3.1665,0,0,-3.1764,-3.1747,-3.1758,-3.1757,-3.1748,-3.1764,-3.1704,-3.1722,-3.1734,-3.1674,-3.1702,-3.1689,-3.1679,-3.172,-3.1737,-3.1711,-3.1811,-3.1773,-3.1781,-3.1782,-3.1805,-3.1819,-3.1832,-3.1669,-3.1668,-3.1668,0,0,-3.1852,-3.1841,-3.1872,-3.1865,-3.1853,-3.1831,-3.1839,-3.1818,-3.1807,-3.1835,-3.1791,-3.1805,-3.1821,-3.1815,-3.1815,-3.1906,-3.1871,-3.191,-3.1969,-3.1995,-3.2006,-3.2016,-3.2048,-3.206,-3.1916,-3.1916,-3.1916,0,-3.1908,-3.1929,-3.1892,-3.1914,-3.1915,-3.1864,-3.1896,-3.1891,-3.1882,-3.1884,-3.1857,-3.1878,-3.1867,-3.1906,-3.1929,-3.193,-3.1938,-3.191,-3.2008,-3.2017,-3.2026,-3.2056,-3.2068,-3.1921,-3.192,-3.192,-3.1919,0,-3.1999,-3.2015,-3.2042,-3.2035,-3.204,-3.2067,-3.2035,-3.2044,-3.2019,-3.2,-3.203,-3.2016,-3.202,-3.2028,-3.2002,-3.2064,-3.2049,-3.2016,-3.1965,-3.2045,-3.2073,-3.2084,-3.1928,-3.1926,-3.1924,-3.1923,0,0,-3.2131,-3.2106,-3.2116,-3.2113,-3.2098,-3.2109,-3.2136,-3.2139,-3.2148,-3.2145,-3.2166,-3.2183,-3.2153,-3.2152,-3.2127,-3.215,-3.2223,-3.2114,-3.2113,-3.2134,-3.229,-3.2314,-3.2328,-3.2201,-3.2203,-3.2205,-3.2291,0,-3.2213,-3.2255,-3.2224,-3.2271,-3.2286,-3.2239,-3.2262,-3.2256,-3.224,-3.2251,-3.2235,-3.2247,-3.2206,-3.2206,-3.2227,-3.221,-3.2254,-3.2203,-3.222,-3.2221,-3.2221,-3.2342,-3.2367,-3.2448,-3.2301,-3.2303,-3.2304,0,-3.2314,-3.2316,-3.2365,-3.2348,-3.2353,-3.2374,-3.2376,-3.2388,-3.2381,-3.2368,-3.237,-3.2339,-3.2364,-3.2318,-3.2352,-3.2319,-3.2325,-3.2318,-3.232,-3.2318,-3.2266,-3.2342,-3.2473,-3.2485,-3.2321,-3.232,-3.2319,0,-3.2404,-3.2419,-3.245,-3.245,-3.2431,-3.2447,-3.2441,-3.2431,-3.2436,-3.2439,-3.2442,-3.2448,-3.2451,-3.2457,-3.2429,-3.2398,-3.2468,-3.2418,-3.2458,-3.2459,-3.2472,-3.2471,-3.2604,-3.2479,-3.2479,-3.2479,-3.2479,0,-3.2498,-3.2529,-3.2491,-3.251,-3.2544,-3.251,-3.2546,-3.2534,-3.2527,-3.2544,-3.2505,-3.2522,-3.2485,-3.2499,-3.2478,-3.251,-3.2512,-3.2503,-3.2496,-3.2505,-3.2506,-3.2506,-3.2499,-3.2482,-3.2482,-3.2481,-3.248,0,-3.2602,-3.2578,-3.2609,-3.259,-3.2587,-3.2613,-3.2597,-3.2615,-3.2599,-3.262,-3.2624,-3.2598,-3.2612,-3.2586,-3.2597,-3.2583,-3.2628,-3.2614,-3.263,-3.2625,-3.2665,-3.2661,-3.2801,-3.2818,-3.2684,-3.2686,-3.2687,0,-3.2662,-3.2686,-3.267,-3.2679,-3.2675,-3.2689,-3.2695,-3.2663,-3.2671,-3.2667,-3.2685,-3.2696,-3.2703,-3.2729,-3.2711,-3.272,-3.2704,-3.2753,-3.2705,-3.2714,-3.2704,-3.2702,-3.2704,-3.2762,-3.2764,-3.2765,-3.2766,0,-3.2772,-3.276,-3.2768,-3.2775,-3.2782,-3.2786,-3.2786,-3.2796,-3.2763,-3.2773,-3.2788,-3.2793,-3.2806,-3.2817,-3.2822,-3.2816,-3.2786,-3.2782,-3.2791,-3.2799,-3.2807,-3.2802,-3.2655,-3.2778,-3.2777,-3.2776,-3.2775,-3.2775,-3.2855,-3.2874,-3.2867,-3.2879,-3.2876,-3.2879,-3.2894,-3.2881,-3.2892,-3.2899,-3.2881,-3.29,-3.2896,-3.2899,-3.2897,-3.2912,-3.289,-3.2904,-3.2907,-3.2911,-3.2917,-3.2807,-3.2913,-3.2913,-3.2913,-3.2912,-3.2912,0,-3.2961,-3.2955,-3.2967,-3.2969,-3.298,-3.2952,-3.2952,-3.2962,-3.2979,-3.2978,-3.2986,-3.3004,-3.3016,-3.3001,-3.3011,-3.3026,-3.3012,-3.3029,-3.3027,-3.3026,-3.2936,-3.2926,-3.304,-3.304,-3.304,-3.304,-3.304,-3.304,-3.3018,-3.3048,-3.3036,-3.3066,-3.306,-3.3078,-3.3081,-3.3083,-3.3081,-3.3103,-3.3113,-3.3104,-3.3097,-3.3106,-3.3117,-3.3112,-3.3117,-3.3139,-3.3129,-3.3045,-3.3032,-3.302,-3.3011,-3.3141,-3.3141,-3.3218,-3.3219,-3.3219]},{"header":{"parameterUnit":"m.s-1","parameterCategory":1,"la1":30.2991,"la2":30.254,"lo1":-89.0895,"lo2":-89.0444,"dy":0.0017,"dx":0.0017,"nx":28,"ny":28,"refTime":"2023-04-17T15:00:00:Z","depth":0,"parameterNumber":3,"parameterNumberName":"V-component_of_WINDS"},"data":[0,0,0,0,0,0,0,0,0,0,0,0,0,0,0,0,0,0,0,0,0,0,0,0,0,0,0,0,0,0,0,0,0,0,0,0,0,0,0,0,0,0,0,0,0,0,0,0,0,0,0,0,0,0,0,0,0,0,3.4787,3.4787,0,3.4788,3.4788,3.4788,3.4822,3.4823,3.4824,3.4825,3.4822,3.4821,3.482,0,0,0,0,0,0,0,0,0,0,0,0,0,3.4811,3.481,3.4787,3.4787,3.4787,3.4788,3.4788,3.4788,3.4822,3.4823,3.4824,3.4825,3.4822,3.4821,3.482,0,0,0,0,0,0,0,0,0,0,0,0,0,3.4805,3.481,3.4787,3.4804,3.4806,3.4788,3.4788,3.4788,3.4822,3.4823,3.4825,3.4826,3.4822,3.4821,3.482,3.4784,0,0,3.4815,3.4815,0,0,0,0,0,0,0,0,3.4805,3.4804,3.4802,3.4803,3.4805,3.4807,3.4795,3.4787,3.4822,3.4816,3.4825,3.4827,3.4815,3.4815,3.4812,3.4784,3.4784,3.4815,3.4815,3.4814,3.4814,0,0,0,0,0,0,0,3.4805,3.4804,3.4787,3.4802,3.4803,3.4811,3.4811,3.4794,3.4808,3.4816,3.4819,3.4819,3.4816,3.4813,3.4812,3.4784,3.4815,3.4814,3.4813,3.4813,3.4729,3.4727,0,0,0,0,0,0,3.4804,3.4804,3.4787,3.4787,3.4808,3.4809,3.481,3.4805,3.4808,3.481,3.4818,3.482,3.4815,3.4813,3.4812,3.4771,3.4814,3.4813,3.4812,3.473,3.4728,3.4727,0,0,0,0,0,0,3.4804,3.4802,3.4787,3.4797,3.4795,3.4807,3.4801,3.4804,3.4801,3.4809,3.4811,3.4812,3.4816,3.4814,3.4792,3.4772,3.4812,3.4811,3.4732,3.4729,3.4727,3.469,0,0,0,0,0,0,3.4805,3.4802,3.479,3.4796,3.4795,3.4768,3.48,3.4803,3.4799,3.4802,3.4804,3.4806,3.4817,3.4793,3.479,3.4771,3.481,3.4733,3.4731,3.4728,3.4693,3.4687,3.4681,0,0,0,0,0,3.4806,3.4778,3.4789,3.4786,3.4779,3.4767,3.4766,3.478,3.4797,3.4784,3.479,3.4806,3.4775,3.4791,3.4787,3.4767,3.4735,3.4731,3.4728,3.4695,3.4688,3.4681,0,0,0,0,0,0,3.4767,3.4779,3.4791,3.4765,3.4765,3.4772,3.4756,3.4771,3.4765,3.4768,3.4785,3.4785,3.476,3.4761,3.4779,3.4734,3.4758,3.4754,3.4734,3.4727,3.4721,3.4721,3.4809,0,0,0,0,0,3.4755,3.4745,3.4756,3.4731,3.4731,3.4744,3.4738,3.475,3.475,3.4749,3.4753,3.4751,3.4741,3.4734,3.4725,3.4693,3.4694,3.4678,3.4672,3.4667,3.4663,3.4647,3.464,3.4716,3.4716,3.4716,0,0,3.4731,3.4737,3.4729,3.4724,3.4725,3.4713,3.4743,3.4729,3.472,3.4746,3.4726,3.4729,3.4728,3.4701,3.4689,3.4702,3.4643,3.4663,3.4659,3.4658,3.4643,3.4636,3.463,3.4714,3.4715,3.4715,0,0,3.4681,3.4684,3.4665,3.4666,3.4668,3.4677,3.4672,3.4678,3.4682,3.4662,3.4682,3.4671,3.4653,3.4652,3.4649,3.46,3.4614,3.4596,3.4566,3.455,3.4544,3.4539,3.4521,3.4515,3.4592,3.4592,3.4592,0,3.465,3.4635,3.4652,3.4638,3.4635,3.466,3.464,3.464,3.4638,3.4635,3.4649,3.4628,3.4629,3.4603,3.4591,3.4588,3.4582,3.4596,3.4544,3.4539,3.4534,3.4518,3.4511,3.459,3.459,3.4591,3.4591,0,3.4597,3.4586,3.4569,3.4569,3.4565,3.4547,3.4561,3.4554,3.4566,3.4573,3.4553,3.4555,3.4548,3.4542,3.4553,3.4518,3.4525,3.4541,3.4565,3.4524,3.4509,3.4503,3.4587,3.4588,3.4588,3.4589,0,0,3.4521,3.4533,3.4526,3.4527,3.4532,3.4523,3.4506,3.4501,3.4494,3.4493,3.4479,3.4464,3.448,3.4476,3.4487,3.4473,3.4434,3.4491,3.4491,3.448,3.4396,3.4384,3.4376,3.4445,3.4443,3.4443,3.4396,0,3.4473,3.4447,3.4463,3.4435,3.4424,3.4449,3.4434,3.4435,3.4442,3.4433,3.444,3.4429,3.445,3.4449,3.4436,3.4442,3.4418,3.4445,3.4431,3.443,3.4431,3.4368,3.4355,3.4311,3.439,3.4389,3.4388,0,3.4414,3.4411,3.4382,3.439,3.4386,3.4373,3.437,3.4362,3.4363,3.4369,3.4366,3.438,3.4364,3.4389,3.4366,3.4385,3.438,3.4382,3.4381,3.4379,3.4407,3.4365,3.4297,3.429,3.4379,3.438,3.4381,0,3.4362,3.4351,3.4333,3.4332,3.4341,3.4331,3.4334,3.4337,3.4333,3.4329,3.4327,3.4321,3.4317,3.4312,3.4325,3.4341,3.43,3.4326,3.4304,3.4304,3.4294,3.4294,3.4224,3.4291,3.4291,3.4291,3.4291,0,3.4307,3.4288,3.431,3.4298,3.4278,3.4296,3.4275,3.428,3.4283,3.4272,3.4292,3.4281,3.4298,3.4289,3.4298,3.4279,3.4277,3.428,3.4283,3.4279,3.4278,3.4275,3.4279,3.4289,3.429,3.429,3.4291,0,3.4245,3.4259,3.4241,3.4251,3.4253,3.4237,3.4245,3.4235,3.4243,3.4229,3.4227,3.424,3.423,3.4242,3.4233,3.4239,3.4212,3.422,3.4212,3.4214,3.4192,3.4194,3.4117,3.4108,3.4181,3.418,3.418,0,3.4209,3.4195,3.4205,3.42,3.4202,3.4193,3.419,3.4207,3.4202,3.4204,3.4193,3.4185,3.418,3.4163,3.4171,3.4164,3.4171,3.4145,3.417,3.4166,3.4171,3.4172,3.417,3.4139,3.4138,3.4138,3.4137,0,3.4143,3.4151,3.4146,3.4143,3.4139,3.4137,3.4137,3.4132,3.415,3.4143,3.4135,3.4131,3.4123,3.4114,3.411,3.4112,3.4127,3.4129,3.4124,3.4119,3.4116,3.4117,3.4198,3.4131,3.4131,3.4132,3.4132,3.4133,3.4093,3.4083,3.4088,3.4082,3.4084,3.4083,3.4074,3.4082,3.4075,3.4071,3.4082,3.407,3.4072,3.4068,3.4069,3.406,3.4071,3.4063,3.4061,3.4059,3.4055,3.4117,3.4059,3.4059,3.4059,3.4059,3.4059,0,3.4029,3.4034,3.4028,3.4028,3.4023,3.404,3.404,3.4035,3.4025,3.4026,3.4022,3.4012,3.4004,3.4012,3.4006,3.3997,3.4004,3.3995,3.3996,3.3996,3.4046,3.4051,3.3989,3.3989,3.399,3.399,3.399,3.399,3.3995,3.3978,3.3987,3.3971,3.3975,3.3966,3.3965,3.3964,3.3966,3.3954,3.3949,3.3955,3.3958,3.3953,3.3947,3.3949,3.3946,3.3934,3.3939,3.3985,3.3992,3.3999,3.4004,3.3934,3.3933,3.389,3.389,3.389]}]]